Location: Unspecified
(0.0000°N, 0.0000°E)
Time: 08:55:22
(UTC+00:00)

RS-8 - Pass Details

Date: 16 October 2022
Orbit: 1579 x 1660 km, 83.0° (Epoch: 01 December)

Event Time Altitude Azimuth Distance (km) Brightness Sun altitude
Rises 18:35:13 0° 165° (SSE) 4,768 10.5 -12.3°
Reaches altitude 10° 18:38:27 10° 157° (SSE) 3,783 9.9 -13.1°
Maximum altitude 18:46:43 38° 92° (E) 2,245 8.4 -15.1°
Drops below altitude 10° 18:54:59 10° 28° (NNE) 3,806 9.7 -17.1°
Sets 18:58:13 0° 20° (NNE) 4,800 10.3 -17.9°
